This is the latest recevied weather packets stored in our database for station/object KJ7IVE-13. If no packets are shown the sender has not sent any weather packets the latest 1 day(s).
| Time | Temp. | Humidity | Pressure | Rain* | Wind** | Luminosity | Snow |
|---|---|---|---|---|---|---|---|
| 1777989518 | 13.89° C | 10% | 1010.3 hPa | 0 mm | 1.34 m/s, 162° | 27 W/m² | - |
| 1777989213 | 13.33° C | 10% | 1010.2 hPa | 0 mm | 3.58 m/s, 192° | 24 W/m² | - |
| 1777988910 | 13.33° C | 10% | 1010.2 hPa | 0 mm | 2.24 m/s, 205° | 22 W/m² | - |
| 1777988607 | 13.33° C | 10% | 1010 hPa | 0 mm | 3.13 m/s, 180° | 19 W/m² | - |
| 1777988303 | 13.33° C | 10% | 1010 hPa | 0 mm | 2.68 m/s, 153° | 15 W/m² | - |
| 1777988000 | 13.33° C | 10% | 1010 hPa | 0 mm | 2.24 m/s, 162° | 14 W/m² | - |
| 1777987696 | 13.33° C | 10% | 1010 hPa | 0 mm | 1.34 m/s, 191° | 13 W/m² | - |
| 1777987393 | 13.33° C | 10% | 1010 hPa | 0 mm | 2.24 m/s, 200° | 12 W/m² | - |
| 1777987090 | 13.33° C | 10% | 1010.2 hPa | 0 mm | 3.13 m/s, 180° | 11 W/m² | - |
| 1777986788 | 13.33° C | 10% | 1010 hPa | 0 mm | 2.68 m/s, 179° | 10 W/m² | - |
| 1777986485 | 13.33° C | 10% | 1009.9 hPa | 0 mm | 0.89 m/s, 189° | 10 W/m² | - |
| 1777986186 | 13.33° C | 10% | 1009.8 hPa | 0 mm | 2.24 m/s, 183° | 8 W/m² | - |
| 1777985880 | 13.33° C | 10% | 1009.8 hPa | 0 mm | 2.24 m/s, 128° | 7 W/m² | - |
| 1777985577 | 13.33° C | 10% | 1009.4 hPa | 0 mm | 2.68 m/s, 179° | 8 W/m² | - |
| 1777985274 | 13.33° C | 10% | 1009.4 hPa | 0 mm | 1.79 m/s, 191° | 6 W/m² | - |
| 1777984971 | 13.33° C | 10% | 1009.5 hPa | 0 mm | 1.79 m/s, 168° | 5 W/m² | - |
| 1777984666 | 13.33° C | 10% | 1009.7 hPa | 0 mm | 2.24 m/s, 152° | 3 W/m² | - |
| 1777984363 | 13.33° C | 10% | 1009.3 hPa | 0 mm | 1.79 m/s, 184° | 2 W/m² | - |
| 1777984060 | 13.33° C | 10% | 1009.5 hPa | 0 mm | 1.34 m/s, 195° | 0 W/m² | - |
| 1777983757 | 13.33° C | 10% | 1009.4 hPa | 0 mm | 0.89 m/s, 186° | 0 W/m² | - |
| 1777983453 | 13.33° C | 10% | 1009.4 hPa | 0 mm | 2.24 m/s, 184° | 0 W/m² | - |
| 1777983150 | 13.33° C | 10% | 1009.4 hPa | 0 mm | 2.24 m/s, 169° | 0 W/m² | - |
| 1777982846 | 12.78° C | 10% | 1009.4 hPa | 0 mm | 2.24 m/s, 187° | 0 W/m² | - |
| 1777982543 | 12.78° C | 10% | 1009.8 hPa | 0 mm | 1.34 m/s, 210° | 0 W/m² | - |
| 1777982241 | 12.78° C | 10% | 1009.5 hPa | 0 mm | 2.24 m/s, 212° | 0 W/m² | - |
* Rain latest hour (hover to see other rain measurements)
** Current wind speed in m/s (hover to see current wind gust speed)